TimeEDT,TemperatureF,Dew PointF,Humidity,Sea Level PressureIn,VisibilityMPH,Wind Direction,Wind SpeedMPH,Gust SpeedMPH,PrecipitationIn,Events,Conditions,WindDirDegrees,DateUTC
12:15 AM,57.2,53.6,88,29.75,10.0,SSW,6.9,-,N/A,,Overcast,200,2013-10-20 04:15:00
12:35 AM,59.0,55.4,88,29.74,10.0,SSW,5.8,-,N/A,,Light Drizzle,200,2013-10-20 04:35:00
12:55 AM,57.2,55.4,94,29.74,10.0,SW,5.8,-,N/A,,Overcast,220,2013-10-20 04:55:00
1:15 AM,57.2,57.2,100,29.73,10.0,SSW,4.6,-,N/A,,Overcast,210,2013-10-20 05:15:00
1:35 AM,57.2,57.2,100,29.73,10.0,SW,3.5,-,N/A,,Overcast,230,2013-10-20 05:35:00
1:55 AM,57.2,57.2,100,29.73,10.0,WSW,4.6,-,N/A,,Mostly Cloudy,250,2013-10-20 05:55:00
2:15 AM,57.2,57.2,100,29.74,10.0,West,3.5,-,N/A,,Mostly Cloudy,260,2013-10-20 06:15:00
2:35 AM,57.2,55.4,94,29.74,10.0,West,6.9,-,N/A,,Mostly Cloudy,270,2013-10-20 06:35:00
2:55 AM,57.2,53.6,88,29.73,10.0,WNW,8.1,-,N/A,,Mostly Cloudy,290,2013-10-20 06:55:00
3:15 AM,55.4,51.8,88,29.74,10.0,WNW,5.8,-,N/A,,Partly Cloudy,290,2013-10-20 07:15:00
3:35 AM,55.4,51.8,88,29.74,10.0,West,5.8,-,N/A,,Partly Cloudy,280,2013-10-20 07:35:00
3:55 AM,55.4,50.0,82,29.74,10.0,WNW,5.8,-,N/A,,Clear,290,2013-10-20 07:55:00
4:15 AM,53.6,50.0,88,29.75,10.0,West,6.9,-,N/A,,Clear,270,2013-10-20 08:15:00
4:35 AM,53.6,48.2,82,29.75,10.0,West,5.8,-,N/A,,Clear,280,2013-10-20 08:35:00
4:55 AM,53.6,48.2,82,29.76,10.0,West,5.8,-,N/A,,Clear,270,2013-10-20 08:55:00
5:15 AM,51.8,48.2,88,29.77,10.0,West,4.6,-,N/A,,Clear,270,2013-10-20 09:15:00
5:35 AM,51.8,48.2,88,29.78,10.0,West,4.6,-,N/A,,Clear,280,2013-10-20 09:35:00
5:55 AM,51.8,48.2,88,29.78,10.0,WNW,6.9,-,N/A,,Clear,300,2013-10-20 09:55:00
6:15 AM,51.8,46.4,82,29.79,10.0,WNW,6.9,-,N/A,,Clear,290,2013-10-20 10:15:00
6:35 AM,50.0,46.4,87,29.80,10.0,NW,9.2,-,N/A,,Clear,310,2013-10-20 10:35:00
6:55 AM,50.0,46.4,87,29.81,10.0,NW,4.6,-,N/A,,Clear,310,2013-10-20 10:55:00
7:15 AM,50.0,46.4,87,29.82,10.0,West,3.5,-,N/A,,Clear,280,2013-10-20 11:15:00
7:35 AM,48.2,46.4,93,29.84,10.0,West,4.6,-,N/A,,Clear,280,2013-10-20 11:35:00
7:55 AM,50.0,46.4,87,29.85,10.0,WNW,4.6,-,N/A,,Clear,300,2013-10-20 11:55:00
8:15 AM,50.0,46.4,87,29.86,10.0,NW,4.6,-,N/A,,Clear,320,2013-10-20 12:15:00
8:35 AM,51.8,46.4,82,29.88,10.0,NNW,8.1,-,N/A,,Clear,330,2013-10-20 12:35:00
8:55 AM,51.8,44.6,76,29.88,10.0,NW,6.9,-,N/A,,Clear,310,2013-10-20 12:55:00
9:15 AM,53.6,42.8,67,29.89,10.0,NW,8.1,-,N/A,,Clear,320,2013-10-20 13:15:00
9:35 AM,53.6,41.0,62,29.89,10.0,NW,10.4,-,N/A,,Clear,310,2013-10-20 13:35:00
9:55 AM,53.6,37.4,54,29.90,10.0,WNW,8.1,18.4,N/A,,Clear,300,2013-10-20 13:55:00
10:15 AM,53.6,35.6,51,29.90,10.0,WNW,8.1,-,N/A,,Clear,290,2013-10-20 14:15:00
10:35 AM,55.4,35.6,47,29.90,10.0,NW,11.5,16.1,N/A,,Clear,320,2013-10-20 14:35:00
10:55 AM,55.4,33.8,44,29.91,10.0,NW,9.2,16.1,N/A,,Clear,320,2013-10-20 14:55:00
11:15 AM,57.2,33.8,41,29.91,10.0,NW,8.1,-,N/A,,Clear,320,2013-10-20 15:15:00
11:35 AM,57.2,33.8,41,29.91,10.0,NW,8.1,-,N/A,,Clear,320,2013-10-20 15:35:00
11:55 AM,57.2,32.0,38,29.90,10.0,West,9.2,-,N/A,,Clear,280,2013-10-20 15:55:00
12:15 PM,57.2,32.0,38,29.91,10.0,WNW,10.4,16.1,N/A,,Clear,300,2013-10-20 16:15:00
12:35 PM,57.2,32.0,38,29.91,10.0,NW,8.1,21.9,N/A,,Clear,310,2013-10-20 16:35:00
12:55 PM,59.0,32.0,36,29.91,10.0,West,5.8,-,N/A,,Clear,270,2013-10-20 16:55:00
1:15 PM,60.8,32.0,34,29.90,10.0,WSW,4.6,-,N/A,,Clear,250,2013-10-20 17:15:00
1:35 PM,60.8,32.0,34,29.90,10.0,WNW,8.1,-,N/A,,Clear,300,2013-10-20 17:35:00
1:55 PM,60.8,32.0,34,29.90,10.0,WNW,13.8,18.4,N/A,,Clear,300,2013-10-20 17:55:00
2:15 PM,60.8,32.0,34,29.90,10.0,WNW,11.5,19.6,N/A,,Clear,290,2013-10-20 18:15:00
2:35 PM,60.8,32.0,34,29.90,10.0,NW,10.4,20.7,N/A,,Clear,320,2013-10-20 18:35:00
2:55 PM,60.8,32.0,34,29.90,10.0,NW,11.5,17.3,N/A,,Clear,310,2013-10-20 18:55:00
3:15 PM,62.6,32.0,32,29.90,10.0,NW,11.5,17.3,N/A,,Clear,320,2013-10-20 19:15:00
3:35 PM,60.8,32.0,34,29.91,10.0,WNW,9.2,-,N/A,,Clear,300,2013-10-20 19:35:00
3:55 PM,60.8,32.0,34,29.92,10.0,WNW,8.1,17.3,N/A,,Clear,300,2013-10-20 19:55:00
4:15 PM,60.8,32.0,34,29.92,10.0,NW,8.1,19.6,N/A,,Clear,320,2013-10-20 20:15:00
4:35 PM,60.8,32.0,34,29.93,10.0,NW,4.6,-,N/A,,Clear,310,2013-10-20 20:35:00
4:55 PM,60.8,32.0,34,29.93,10.0,WNW,6.9,20.7,N/A,,Clear,300,2013-10-20 20:55:00
5:15 PM,59.0,32.0,36,29.94,10.0,WNW,5.8,-,N/A,,Clear,300,2013-10-20 21:15:00
5:35 PM,59.0,32.0,36,29.95,10.0,WNW,3.5,-,N/A,,Clear,290,2013-10-20 21:35:00
5:55 PM,57.2,32.0,38,29.95,10.0,West,3.5,-,N/A,,Clear,280,2013-10-20 21:55:00
6:15 PM,55.4,33.8,44,29.96,10.0,West,3.5,-,N/A,,Clear,270,2013-10-20 22:15:00
6:35 PM,53.6,33.8,47,29.97,10.0,WSW,3.5,-,N/A,,Clear,250,2013-10-20 22:35:00
6:55 PM,51.8,35.6,54,29.98,10.0,WSW,3.5,-,N/A,,Clear,250,2013-10-20 22:55:00
7:15 PM,51.8,33.8,50,29.98,10.0,West,3.5,-,N/A,,Clear,260,2013-10-20 23:15:00
7:35 PM,51.8,35.6,54,29.99,10.0,West,4.6,-,N/A,,Clear,280,2013-10-20 23:35:00
7:55 PM,51.8,33.8,50,30.00,10.0,West,3.5,-,N/A,,Clear,270,2013-10-20 23:55:00
8:15 PM,51.8,33.8,50,30.01,10.0,West,3.5,-,N/A,,Clear,270,2013-10-21 00:15:00
8:35 PM,51.8,33.8,50,30.01,10.0,West,3.5,-,N/A,,Clear,280,2013-10-21 00:35:00
8:55 PM,51.8,33.8,50,30.02,10.0,West,3.5,-,N/A,,Clear,270,2013-10-21 00:55:00
9:15 PM,50.0,35.6,58,30.02,10.0,West,3.5,-,N/A,,Clear,270,2013-10-21 01:15:00
9:35 PM,51.8,33.8,50,30.03,10.0,West,3.5,-,N/A,,Clear,270,2013-10-21 01:35:00
9:55 PM,50.0,35.6,58,30.04,10.0,Calm,Calm,-,N/A,,Clear,0,2013-10-21 01:55:00
10:15 PM,48.2,35.6,62,30.04,10.0,West,3.5,-,N/A,,Clear,280,2013-10-21 02:15:00
10:35 PM,50.0,33.8,54,30.05,10.0,West,4.6,-,N/A,,Clear,280,2013-10-21 02:35:00
10:55 PM,50.0,33.8,54,30.05,10.0,WNW,3.5,-,N/A,,Clear,290,2013-10-21 02:55:00
11:15 PM,48.2,35.6,62,30.05,10.0,WNW,3.5,-,N/A,,Clear,290,2013-10-21 03:15:00
11:35 PM,50.0,33.8,54,30.06,10.0,WNW,3.5,-,N/A,,Clear,300,2013-10-21 03:35:00
11:55 PM,50.0,35.6,58,30.06,10.0,WNW,3.5,-,N/A,,Clear,300,2013-10-21 03:55:00